NOAA 16 DEB

Satellite information

Favourite Embed

Satellite Type and Status

DEBRISIN ORBIT

Key statistics

Satellite NOAA 16 DEB at a glance.

Uptime

9215

Days in orbit

Revolutions

≈ 14.2

Per day

Orbit

SSO

Sun Synchronous Orbit

Inclination

98.9

Latest

Satellite identification and parameters

Extended collection of information and parameters for NOAA 16 DEB.

Object identification

Identified? True

Debris? True

Object name: NOAA 16 DEB

International designator: 2000-055EM

Object number (NORAD): 41232

Object ID (CCSDS): 41232

Country: UNITED STATES OF AMERICA (US)

Current information (Y/N): Y

RCS size: SMALL

Orbital parameters

Period: 101.218 minutes

Inclination: 98.8832 deg

SMA: 7194.475 km

Apoapsis: 843.933 km

Periapsis: 788.748 km

RAAN: 54.8384 deg

Eccentricy: 0.00383524

Argument of periapsis: 78.2759 deg

Mean anomaly: 282.2718 deg

Mean motion: 14.22669643 rev/day

Mean motion (dot): 0.00010849 rev/day2

B* drag term: 0.0048242067 1/REarth

Two-line elements (TLE)

Creation date: Dec. 11, 2025, 7:14 p.m.

Reference frame: TEME

Reference center: EARTH

Epoch: Dec. 11, 2025, 10:56 a.m. UTC

TLE line 0: 0 NOAA 16 DEB

TLE line 1: 1 41232U 00055EM 25345.45569534 .00010849 00000-0 48242-2 0 9996

TLE line 2: 2 41232 98.8832 54.8384 0038352 78.2759 282.2718 14.22669643513229

Live tracking on map

Real-time ground track for satellite NOAA 16 DEB.

In-orbit conjunctions

A list of the most updated potential collisions computed for object NOAA 16 DEB.

Target Orbit TCA Probability of collision Miss distance Type
COSMOS 2369 LEO 2025-06-08 08:21:54 0.0001171587 606.0 (m) PAYLOAD
SL-3 R/B LEO 2025-03-27 06:30:51 0.0001074645 992.0 (m) ROCKET BODY
CZ-6A DEB LEO 2024-12-20 07:55:57 0.0002716614 193.0 (m) DEBRIS
CZ-6A DEB SSO 2024-09-26 22:23:55 0.0001326487 810.0 (m) DEBRIS
COSMOS 2251 DEB LEO 2024-09-26 19:45:29 0.0002631656 236.0 (m) DEBRIS

Associated space launch

The NOAA K, L and M POES satellites begin the fifth generation of improved environmental monitoring in support of NOAA missions. The instrument payload has significant improvements and additions/deletions. The instrument changes have effected the spacecraft subsystems and data formats.

NOAA 16 DEB was lifted into orbit during the mission ‘Titan II SLV | NOAA 16’, on board a Titan II SLV space rocket.

The launch took place on Sept. 21, 2000, 10:22 a.m. from Space Launch Complex 4W.

For more information about the launch, click the button.

Launch to space Titan II SLV | NOAA 16
Titan II SLV | NOAA 16

Agency: N/A

Status: Launch Successful

Launch date: Sept. 21, 2000, 10:22 a.m. UTC

Rocket: Titan II SLV

Launch pad: Space Launch Complex 4W

Location: Vandenberg SFB, CA, USA

...

Latest news about this satellite

There are no fresh news available about this satellite. Check back as we update our databases every day.


Newsletter sign-up

Weekly statistics, charts and insights to help you stay on top of the space industry.